| time (UTC) | temp C | wind direction | speed KPH | gust KPH | rain 1hr cm | rain 24hr cm | rain mn cm | humidity % | barometer mb |
| 20260509024543 | 13 | 110 | 0.0 | 0.0 | 0.00 | 0.00 | 0.00 | 66 | 1014.2 |
| 20260509023042 | 13 | 110 | 0.0 | 0.0 | 0.00 | 0.00 | 0.00 | 66 | 1014.4 |
| 20260509021542 | 13 | 110 | 0.0 | 0.0 | 0.00 | 0.00 | 0.00 | 64 | 1014.3 |
| 20260509020042 | 13 | 110 | 0.0 | 0.0 | 0.00 | 0.00 | 0.00 | 66 | 1014.3 |
| 20260509014542 | 13 | 110 | 0.0 | 0.0 | 0.00 | 0.00 | 0.00 | 64 | 1014.2 |
| 20260509013045 | 13 | 110 | 0.0 | 0.0 | 0.00 | 0.00 | 0.00 | 63 | 1014.1 |
| 20260509011546 | 14 | 110 | 0.0 | 0.0 | 0.00 | 0.00 | 0.00 | 60 | 1013.9 |
| 20260509010044 | 15 | 110 | 0.0 | 1.6 | 0.00 | 0.00 | 0.00 | 59 | 1013.9 |
| 20260509004548 | 16 | 108 | 0.0 | 0.0 | 0.00 | 0.00 | 0.00 | 56 | 1013.8 |
| 20260509003039 | 16 | 108 | 0.0 | 1.6 | 0.00 | 0.00 | 0.00 | 53 | 1013.7 |
| 20260509001538 | 18 | 110 | 0.0 | 1.6 | 0.00 | 0.00 | 0.00 | 51 | 1013.8 |
| 20260509000044 | 20 | 117 | 0.0 | 1.6 | 0.00 | 0.00 | 0.00 | 46 | 1013.8 |
| 20260508234536 | 21 | 123 | 0.0 | 3.2 | 0.00 | 0.00 | 0.00 | 44 | 1014.0 |
| 20260508233037 | 22 | 162 | 0.0 | 3.2 | 0.00 | 0.00 | 0.00 | 42 | 1013.9 |
| 20260508231536 | 22 | 243 | 0.0 | 4.8 | 0.00 | 0.00 | 0.00 | 41 | 1013.8 |
| 20260508230035 | 22 | 106 | 0.0 | 3.2 | 0.00 | 0.00 | 0.00 | 42 | 1013.7 |
| 20260508224533 | 21 | 70 | 0.0 | 6.4 | 0.00 | 0.00 | 0.00 | 46 | 1014.0 |
| 20260508223036 | 21 | 5 | 1.6 | 11.3 | 0.00 | 0.00 | 0.00 | 48 | 1014.1 |
| 20260508221536 | 21 | 338 | 8.0 | 12.9 | 0.00 | 0.00 | 0.00 | 47 | 1013.9 |
| 20260508220037 | 21 | 215 | 1.6 | 17.7 | 0.00 | 0.00 | 0.00 | 51 | 1014.1 |
| 20260508214531 | 21 | 290 | 4.8 | 12.9 | 0.00 | 0.00 | 0.00 | 45 | 1014.1 |
| 20260508213043 | 22 | 309 | 1.6 | 9.7 | 0.00 | 0.00 | 0.00 | 47 | 1014.4 |
| 20260508211533 | 22 | 294 | 3.2 | 9.7 | 0.00 | 0.00 | 0.00 | 46 | 1014.2 |
| 20260508210025 | 21 | 127 | 1.6 | 8.0 | 0.00 | 0.00 | 0.00 | 45 | 1014.1 |
| 20260508204523 | 20 | 323 | 3.2 | 9.7 | 0.00 | 0.00 | 0.00 | 45 | 1014.4 |
| 20260508203022 | 20 | 323 | 8.0 | 12.9 | 0.00 | 0.00 | 0.00 | 47 | 1014.4 |
| 20260508201521 | 20 | 250 | 0.0 | 14.5 | 0.00 | 0.00 | 0.00 | 47 | 1014.6 |
| 20260508200020 | 20 | 295 | 3.2 | 12.9 | 0.00 | 0.00 | 0.00 | 48 | 1014.8 |
| 20260508194517 | 20 | 274 | 3.2 | 9.7 | 0.00 | 0.00 | 0.00 | 53 | 1015.3 |
| 20260508193014 | 20 | 309 | 9.7 | 17.7 | 0.00 | 0.00 | 0.00 | 51 | 1016.0 |
| 20260508191517 | 20 | 274 | 3.2 | 8.0 | 0.00 | 0.00 | 0.00 | 48 | 1016.2 |
| 20260508190008 | 21 | 324 | 1.6 | 9.7 | 0.00 | 0.00 | 0.00 | 43 | 1016.3 |
| 20260508184513 | 20 | 319 | 0.0 | 11.3 | 0.00 | 0.00 | 0.00 | 52 | 1016.5 |
| 20260508183006 | 20 | 302 | 1.6 | 9.7 | 0.00 | 0.00 | 0.00 | 46 | 1016.7 |
| 20260508181515 | 20 | 39 | 0.0 | 8.0 | 0.00 | 0.00 | 0.00 | 49 | 1016.9 |
| 20260508180005 | 20 | 101 | 0.0 | 6.4 | 0.00 | 0.00 | 0.00 | 44 | 1016.9 |
| 20260508174609 | 20 | 238 | 0.0 | 6.4 | 0.00 | 0.00 | 0.00 | 44 | 1017.1 |
| 20260508173058 | 18 | 41 | 6.4 | 11.3 | 0.00 | 0.00 | 0.00 | 47 | 1017.3 |
| 20260508171558 | 18 | 282 | 3.2 | 9.7 | 0.00 | 0.00 | 0.00 | 52 | 1017.6 |
| 20260508170058 | 19 | 70 | 0.0 | 6.4 | 0.00 | 0.00 | 0.00 | 48 | 1017.9 |
| 20260508164557 | 18 | 129 | 0.0 | 6.4 | 0.00 | 0.00 | 0.00 | 46 | 1018.3 |
| 20260508163055 | 18 | 265 | 0.0 | 8.0 | 0.00 | 0.00 | 0.00 | 48 | 1018.7 |
| 20260508161552 | 18 | 148 | 0.0 | 6.4 | 0.00 | 0.00 | 0.00 | 52 | 1018.7 |
| 20260508160048 | 17 | 306 | 0.0 | 4.8 | 0.00 | 0.00 | 0.00 | 56 | 1019.0 |
| 20260508154554 | 17 | 306 | 3.2 | 12.9 | 0.00 | 0.00 | 0.00 | 60 | 1019.2 |
| 20260508153048 | 17 | 257 | 3.2 | 8.0 | 0.00 | 0.00 | 0.00 | 58 | 1019.3 |
| 20260508151547 | 17 | 308 | 1.6 | 4.8 | 0.00 | 0.00 | 0.00 | 55 | 1019.5 |
| 20260508150044 | 17 | 257 | 0.0 | 8.0 | 0.00 | 0.00 | 0.00 | 55 | 1019.5 |
| 20260508144541 | 17 | 112 | 0.0 | 8.0 | 0.00 | 0.00 | 0.00 | 56 | 1019.5 |
| 20260508143039 | 16 | 146 | 0.0 | 9.7 | 0.00 | 0.00 | 0.00 | 61 | 1019.4 |
| 20260508141547 | 16 | 218 | 0.0 | 3.2 | 0.00 | 0.00 | 0.00 | 71 | 1019.6 |
| 20260508140034 | 16 | 131 | 0.0 | 3.2 | 0.00 | 0.03 | 0.00 | 71 | 1019.8 |
| 20260508134534 | 15 | 104 | 0.0 | 4.8 | 0.00 | 0.03 | 0.00 | 75 | 1019.7 |
| 20260508133029 | 15 | 148 | 0.0 | 3.2 | 0.00 | 0.03 | 0.00 | 80 | 1019.6 |
| 20260508131526 | 13 | 28 | 0.0 | 4.8 | 0.00 | 0.03 | 0.00 | 84 | 1019.5 |
| 20260508130021 | 12 | 139 | 0.0 | 3.2 | 0.00 | 0.03 | 0.00 | 88 | 1019.4 |
| 20260508124520 | 11 | 107 | 1.6 | 6.4 | 0.00 | 0.03 | 0.00 | 89 | 1019.4 |
| 20260508123015 | 11 | 168 | 0.0 | 4.8 | 0.00 | 0.03 | 0.00 | 94 | 1019.5 |
| 20260508121512 | 10 | 127 | 0.0 | 1.6 | 0.00 | 0.03 | 0.00 | 97 | 1019.3 |
| 20260508120010 | 8 | 10 | 0.0 | 0.0 | 0.00 | 0.05 | 0.00 | 97 | 1019.3 |
| 20260508114508 | 6 | 10 | 0.0 | 0.0 | 0.00 | 0.05 | 0.00 | 95 | 1019.0 |
| 20260508113007 | 6 | 10 | 0.0 | 0.0 | 0.00 | 0.05 | 0.00 | 95 | 1018.6 |
| 20260508111511 | 6 | 10 | 0.0 | 0.0 | 0.00 | 0.05 | 0.00 | 95 | 1018.5 |
| 20260508110002 | 6 | 10 | 0.0 | 0.0 | 0.00 | 0.05 | 0.00 | 94 | 1018.2 |
| 20260508104601 | 7 | 10 | 0.0 | 0.0 | 0.00 | 0.05 | 0.00 | 94 | 1018.1 |
| 20260508103135 | 7 | 10 | 0.0 | 0.0 | 0.00 | 0.05 | 0.00 | 94 | 1017.8 |
| 20260508101619 | 7 | 10 | 0.0 | 0.0 | 0.00 | 0.05 | 0.00 | 93 | 1017.8 |
| 20260508100057 | 7 | 10 | 0.0 | 0.0 | 0.00 | 0.08 | 0.00 | 92 | 1017.8 |
| 20260508094610 | 6 | 10 | 0.0 | 0.0 | 0.00 | 0.08 | 0.00 | 92 | 1017.8 |
| 20260508093056 | 6 | 10 | 0.0 | 0.0 | 0.00 | 0.08 | 0.00 | 91 | 1017.7 |
| 20260508091553 | 6 | 337 | 0.0 | 0.0 | 0.00 | 0.08 | 0.00 | 88 | 1017.5 |
| 20260508084549 | 6 | 337 | 0.0 | 0.0 | 0.00 | 0.13 | 0.00 | 88 | 1017.5 |
| 20260508083104 | 7 | 337 | 0.0 | 0.0 | 0.00 | 0.13 | 0.00 | 86 | 1017.4 |
| 20260508081545 | 7 | 337 | 0.0 | 0.0 | 0.00 | 0.13 | 0.00 | 87 | 1017.2 |
| 20260508080053 | 7 | 337 | 0.0 | 0.0 | 0.00 | 0.15 | 0.00 | 88 | 1017.4 |
| 20260508074544 | 7 | 337 | 0.0 | 0.0 | 0.00 | 0.15 | 0.00 | 88 | 1017.5 |
| 20260508073040 | 7 | 337 | 0.0 | 0.0 | 0.00 | 0.15 | 0.00 | 88 | 1017.6 |
| 20260508071538 | 8 | 337 | 0.0 | 0.0 | 0.00 | 0.15 | 0.00 | 86 | 1017.6 |
| 20260508070034 | 8 | 337 | 0.0 | 0.0 | 0.00 | 0.15 | 0.00 | 85 | 1017.6 |
| 20260508064544 | 8 | 337 | 0.0 | 0.0 | 0.00 | 0.15 | 0.00 | 85 | 1017.6 |
| 20260508063031 | 9 | 337 | 0.0 | 0.0 | 0.00 | 0.15 | 0.00 | 85 | 1017.5 |
| 20260508061534 | 9 | 337 | 0.0 | 0.0 | 0.00 | 0.15 | 0.00 | 85 | 1017.5 |
| 20260508060030 | 9 | 337 | 0.0 | 0.0 | 0.00 | 0.30 | 0.00 | 85 | 1017.5 |
| 20260508054533 | 10 | 337 | 0.0 | 0.0 | 0.00 | 0.30 | 0.00 | 84 | 1017.6 |
| 20260508053031 | 10 | 337 | 0.0 | 0.0 | 0.00 | 0.30 | 0.00 | 85 | 1017.8 |
| 20260508051528 | 9 | 337 | 0.0 | 0.0 | 0.00 | 0.30 | 0.00 | 85 | 1017.8 |
| 20260508050029 | 10 | 337 | 0.0 | 1.6 | 0.00 | 0.30 | 0.00 | 84 | 1017.5 |
| 20260508044525 | 10 | 337 | 0.0 | 1.6 | 0.00 | 0.30 | 0.00 | 85 | 1017.3 |
| 20260508043022 | 9 | 337 | 0.0 | 0.0 | 0.00 | 0.30 | 0.00 | 85 | 1017.1 |
| 20260508041520 | 10 | 337 | 0.0 | 0.0 | 0.00 | 0.30 | 0.00 | 84 | 1016.9 |
| 20260508040022 | 10 | 337 | 0.0 | 0.0 | 0.00 | 0.30 | 0.30 | 84 | 1016.9 |
| 20260508034516 | 10 | 337 | 0.0 | 0.0 | 0.00 | 0.30 | 0.30 | 82 | 1016.7 |
| 20260508033013 | 10 | 337 | 0.0 | 0.0 | 0.00 | 0.30 | 0.30 | 81 | 1016.8 |
| 20260508031510 | 11 | 337 | 0.0 | 1.6 | 0.00 | 0.30 | 0.30 | 80 | 1016.7 |
| 20260508030013 | 11 | 337 | 0.0 | 0.0 | 0.00 | 0.38 | 0.30 | 80 | 1016.6 |